Regional Weather Roundup
Issued by NWS Northern Indiana

Current Version | Previous Version | Text Only | Print | Product List | Glossary On
Versions: 1 2 3 4 5 6 7 8 9 10 11 12 13 14 15 16 17 18 19 20 21 22 23 24 25 26 27 28 29 30 31 32 33 34 35 36 37 38 39 40 41 42 43 44 45 46 47 48 49 50
000
ASUS43 KIWX 250710
RWRIWX

KIWX WEATHER ROUNDUP
NATIONAL WEATHER SERVICE NORTHERN INDIANA
300 AM EDT SAT MAR 25 2017

NOTE: "FAIR" INDICATES FEW OR NO CLOUDS BELOW 12,000 FEET WITH NO
SIGNIFICANT WEATHER AND/OR OBSTRUCTIONS TO VISIBILITY.

* THESE STATIONS ARE NOT UNDER NWS QUALITY CONTROL. THEY ALSO MAY NOT
  REPORT WEATHER SUCH AS PRECIPITATION OR FOG.

INZ001>027-250800-
NORTHERN INDIANA

CITY           SKY/WX    TMP DP  RH WIND       PRES   REMARKS
GARY*          CLOUDY    40  38  92 N13       30.07F
VALPARAISO     CLOUDY    41  39  93 N5        30.04F
MICHIGAN CITY* CLOUDY    37  37 100 CALM      30.05F
LAPORTE*       CLOUDY    41  39  91 NW3       30.04F
KNOX*          CLOUDY    43  28  56 N5        30.03S
SOUTH BEND     CLOUDY    43  41  93 NW3       30.03F
GOSHEN         MOCLDY    54  49  83 S3        30.02F
MONTICELLO*    CLOUDY    62  52  69 S3        30.01S
LOGANSPORT*    CLOUDY    55  52  88 S5        30.03S
ROCHESTER*     PTCLDY    63  54  72 SW5       30.03S
WARSAW*        CLOUDY    59  52  77 CALM      30.03S
ANGOLA*        MOCLDY    57  48  72 CALM      30.04S
FORT WAYNE     CLOUDY    55  49  80 S7        30.04F
HUNTINGTON*    PTCLDY    59  52  77 S5        30.03F
PERU/GRISSOM   CLOUDY    61  54  78 SW9       30.01F
MARION*        PTCLDY    59  51  77 S13       30.05S

$$
INZ028>050-250800-
CENTRAL INDIANA

CITY           SKY/WX    TMP DP  RH WIND       PRES   REMARKS
LAFAYETTE      CLOUDY    63  52  67 S3        30.01S
KOKOMO*        MOCLDY    62  52  69 S9        30.04F
MUNCIE*        MOCLDY    63  53  70 S9        30.06S
INDIANAPOLIS   MOCLDY    62  51  67 S9        30.04F

$$
MIZ043>046-050>051-056>058-064>065-071>073-077>080-250800-
SOUTHWEST LOWER MICHIGAN

CITY           SKY/WX    TMP DP  RH WIND       PRES   REMARKS
BATTLE CREEK   CLOUDY    45  44  97 NE7       30.06S FOG
BENTON HARBOR  CLOUDY    43  40  89 E6        30.03F FOG
COLDWATER*     CLOUDY    51  45  78 E3        30.04S
HILLSDALE*     CLOUDY    46  43  87 E7        30.04F
HOLLAND        CLOUDY    44  38  79 E9        30.07S
GRAND RAPIDS   CLOUDY    41  35  79 E16       30.08F
KALAMAZOO      CLOUDY    47  44  90 NE7       30.06R FOG
STURGIS*       CLOUDY    55  49  79 E3        30.02S
THREE RIVERS*  CLOUDY    54  48  80 NE3       30.04R

$$
OHZ001>008-015>018-024>025-250800-
NORTHWEST OHIO

CITY           SKY/WX    TMP DP  RH WIND       PRES   REMARKS
WAUSEON*       CLOUDY    59  54  82 CALM      30.05S
DEFIANCE       CLOUDY    59  51  75 S6        30.04F
FINDLAY        CLOUDY    61  51  70 SW12      30.05F
TOLEDO EXPRESS CLOUDY    49  42  77 E10       30.06R
TOLEDO METCALF CLOUDY    46  41  82 NE7       30.09R
LIMA           CLOUDY    61  52  72 S9        30.07S

$$
AND FOR LAKE MICHIGAN COASTAL AND OPEN LAKE BUOY OBSERVATIONS

STATION/POSITION TEMP    WIND        PRES    VSBY  WAVE
                 AIR SEA DIR/SP/G                  HT/PER
                 (F)     (DEG/KT/KT) (MB)    (MI)  (FT/S)
CALUMET HARBOR           330/ 14/ 19 1017.7R
MICHIGAN CITY     38     280/  3/  3   N/A
BURNS HARBOR      39     310/  3/  4 1018.3F
SAINT JOSEPH      42     110/  3/  5 1016.6

$$
&&




USA.gov is the U.S. government's official web portal to all federal, state and local government web resources and services.